This is the latest recevied weather packets stored in our database for station/object KB4JAC-13. If no packets are shown the sender has not sent any weather packets the latest 10 day(s).
| Time | Temp. | Humidity | Pressure | Rain* | Wind** | Luminosity | Snow |
|---|---|---|---|---|---|---|---|
| 1788478367 | 30° C | 74% | 989.7 hPa | 0 mm | - | - | - |
| 1788477766 | 30.56° C | 72% | 989.8 hPa | 0 mm | - | - | - |
| 1788477165 | 31.11° C | 72% | 989.7 hPa | 0 mm | - | - | - |
| 1788476564 | 31.11° C | 70% | 989.5 hPa | 0 mm | - | - | - |
| 1788475963 | 31.67° C | 68% | 989.5 hPa | 0 mm | - | - | - |
| 1788475362 | 32.22° C | 67% | 989.8 hPa | 0 mm | - | - | - |
| 1788474761 | 32.22° C | 65% | 989.7 hPa | 0 mm | - | - | - |
| 1788474160 | 32.78° C | 64% | 989.6 hPa | 0 mm | - | - | - |
| 1788473559 | 33.33° C | 63% | 989.4 hPa | 0 mm | - | - | - |
| 1788472958 | 33.33° C | 62% | 989.5 hPa | 0 mm | - | - | - |
| 1788472358 | 33.89° C | 58% | 989.7 hPa | 0 mm | - | - | - |
| 1788471757 | 34.44° C | 54% | 989.6 hPa | 0 mm | - | - | - |
| 1788471156 | 35° C | 53% | 989.7 hPa | 0 mm | - | - | - |
| 1788470555 | 35.56° C | 51% | 989.9 hPa | 0 mm | - | - | - |
| 1788469954 | 38.33° C | 46% | 989.7 hPa | 0 mm | - | - | - |
| 1788469353 | 38.33° C | 43% | 989.9 hPa | 0 mm | - | - | - |
| 1788468752 | 40° C | 43% | 989.8 hPa | 0 mm | - | - | - |
| 1788468152 | 39.44° C | 43% | 989.8 hPa | 0 mm | - | - | - |
| 1788467551 | 38.33° C | 44% | 989.9 hPa | 0 mm | - | - | - |
| 1788466950 | 39.44° C | 43% | 990 hPa | 0 mm | - | - | - |
| 1788466349 | 38.89° C | 44% | 990 hPa | 0 mm | - | - | - |
| 1788465748 | 38.33° C | 44% | 990.2 hPa | 0 mm | - | - | - |
| 1788465147 | 38.89° C | 41% | 990.3 hPa | 0 mm | - | - | - |
| 1788464546 | 38.33° C | 43% | 990.5 hPa | 0 mm | - | - | - |
| 1788463945 | 38.89° C | 44% | 990.5 hPa | 0 mm | - | - | - |
* Rain since midnight (hover to see other rain measurements)
** Current wind speed in m/s (hover to see current wind gust speed)